sat.trackr.live / text

‹ back to catalog

STARLINK-33714

NORAD 63581 · 2025-076N

PAYLOAD ACTIVE UNKNOWN

§ Identity

Operator
Country
US
Launch date
2025-04-14
Launch site
AFETR
Launch vehicle
Mass (kg)
RCS (m²)

Purposes: comms

External: N2YO · Heavens-Above · Gunter

§ Orbital elements

Epoch: 2026-05-25T00:05:16.585152Z

Period
94.27 min
Inclination
43.0041°
Eccentricity
0.0001236
Mean motion
15.27583816 rev/d
Perigee alt
482.2 km
Apogee alt
483.9 km
Semi-major
6,861.2 km
B*
3.5020e-4
RAAN
250.5408°
Arg perigee
277.4597°
Mean anomaly
82.6114°
Rev number
6,350

§ Raw data

STARLINK-337141 63581U 25076N   26145.00366418  .00009388  00000+0  35020-3 0  99992 63581  43.0041 250.5408 0001236 277.4597  82.6114 15.27583816 63506

JSON: /api/v1/satellites/63581 · /tle

For live sub-satellite position, see the globe view (requires WebGL).

§ Visibility from observer

Set your observer location to see the next 7 days of passes ≥ 10°. The values pass through the URL so the page stays shareable.

No JS? Fill the form by hand. The geolocation button needs JavaScript.